This is the latest recevied weather packets stored in our database for station/object WA2TQI. If no packets are shown the sender has not sent any weather packets the latest 10 day(s).
| Time | Temp. | Humidity | Pressure | Rain* | Wind** | Luminosity | Snow |
|---|---|---|---|---|---|---|---|
| 1778017478 | 27.78° C | 45% | 1010.3 hPa | 0 mm | - | - | - |
| 1778017175 | 27.78° C | 45% | 1009.9 hPa | 0 mm | - | - | - |
| 1778016873 | 27.78° C | 44% | 1010 hPa | 0 mm | - | - | - |
| 1778016569 | 27.78° C | 44% | 1010 hPa | 0 mm | - | - | - |
| 1778016266 | 27.78° C | 43% | 1010 hPa | 0 mm | - | - | - |
| 1778015962 | 28.33° C | 42% | 1009.8 hPa | 0 mm | - | - | - |
| 1778015660 | 28.33° C | 42% | 1009.9 hPa | 0 mm | - | - | - |
| 1778015356 | 28.33° C | 40% | 1009.6 hPa | 0 mm | - | - | - |
| 1778015063 | 28.33° C | 41% | 1009.8 hPa | 0 mm | - | - | - |
| 1778014751 | 28.33° C | 41% | 1009.8 hPa | 0 mm | - | - | - |
| 1778014449 | 28.33° C | 41% | 1009.6 hPa | 0 mm | - | - | - |
| 1778014145 | 28.33° C | 40% | 1009.7 hPa | 0 mm | - | - | - |
| 1778013843 | 28.33° C | 40% | 1009.6 hPa | 0 mm | - | - | - |
| 1778013540 | 28.33° C | 39% | 1009.9 hPa | 0 mm | - | - | - |
| 1778013236 | 28.33° C | 39% | 1009.6 hPa | 0 mm | - | - | - |
| 1778012933 | 28.33° C | 39% | 1009.7 hPa | 0 mm | - | - | - |
| 1778012629 | 28.33° C | 42% | 1009.4 hPa | 0 mm | - | - | - |
| 1778012326 | 28.33° C | 44% | 1009.5 hPa | 0 mm | - | - | - |
| 1778012023 | 28.89° C | 44% | 1009.6 hPa | 0 mm | - | - | - |
| 1778011722 | 28.89° C | 43% | 1009.7 hPa | 0 mm | - | - | - |
| 1778011418 | 28.33° C | 45% | 1009.6 hPa | 0 mm | - | - | - |
| 1778011114 | 28.33° C | 45% | 1009.7 hPa | 0 mm | - | - | - |
| 1778010811 | 28.89° C | 45% | 1009.6 hPa | 0 mm | - | - | - |
| 1778010508 | 28.89° C | 46% | 1009.8 hPa | 0 mm | - | - | - |
| 1778010205 | 28.33° C | 45% | 1009.7 hPa | 0 mm | - | - | - |
* Rain latest hour (hover to see other rain measurements)
** Current wind speed in m/s (hover to see current wind gust speed)